Stations météo

réclame
Mon MeteoGroup
Ahaus, Allemagne (10309): Température de l'air & dewpoint: 11.02.2019 13:00:00 - 17.02.2019 13:00:00 (CET)Ahaus, Allemagne (10309): Température de l'air 5cm & Température de l'air -5cm: 11.02.2019 13:00:00 - 17.02.2019 13:00:00 (CET)Ahaus, Allemagne (10309): Température de l'air -20cm & Température de l'air -100cm: 11.02.2019 13:00:00 - 17.02.2019 13:00:00 (CET)Ahaus, Allemagne (10309): Vitesse du vent & gusts: 11.02.2019 13:00:00 - 17.02.2019 13:00:00 (CET)Ahaus, Allemagne (10309): Direction du vent: 11.02.2019 13:00:00 - 17.02.2019 13:00:00 (CET)Ahaus, Allemagne (10309): reduced air pressure: 11.02.2019 13:00:00 - 17.02.2019 13:00:00 (CET)Ahaus, Allemagne (10309): visibility: 11.02.2019 13:00:00 - 17.02.2019 13:00:00 (CET)Ahaus, Allemagne (10309): Ensoleillement: 11.02.2019 13:00:00 - 17.02.2019 13:00:00 (CET)Ahaus, Allemagne (10309): Quantités de précipitations: 11.02.2019 13:00:00 - 17.02.2019 13:00:00 (CET)
Date & Time tt [°C] td [°C] tt 5cm [°C] tt -5cm [°C] tt -20cm [°C] tt -100cm [°C] ff [km/h] ff [knt] fx [km/h] fx [knt] dd ppp [hPa] vv [km] sd [min] rr [mm]
17.02.2019 13:00:00 13,2 3,6 15,3 7,1 3,4 5,6 11 6 17 9 SSE 1020,9 12 60 0,0
17.02.2019 12:00:00 11,2 3,5 13,5 5,0 3,1 5,6 11 6 18 10 SSE 1021,8 11 60 0,0
17.02.2019 11:00:00 9,1 3,0 10,1 2,6 3,1 5,6 10 6 15 8 SSE 1022,2 14 60 0,0
17.02.2019 10:00:00 6,3 2,1 6,5 1,4 3,1 5,6 10 5 14 8 SSE 1022,6 10 59 0,0
17.02.2019 09:00:00 1,6 0,3 -0,6 1,3 3,2 5,6 5 3 10 6 SE 1022,8 6 3 0,0
17.02.2019 08:00:00 1,3 0,2 -1,8 1,4 3,3 5,6 8 4 10 5 SSE 1023,0 5 0 0,0
17.02.2019 07:00:00 1,3 0,0 -2,5 1,5 3,5 5,6 7 4 10 6 SSE 1022,9 6 0 0,0
17.02.2019 06:00:00 2,8 0,5 -1,5 1,5 3,6 5,6 9 5 11 6 SSE 1023,2 7 0 0,0
17.02.2019 05:00:00 3,0 0,5 -1,5 1,6 3,8 5,6 10 5 13 7 S 1023,6 8 0 0,0
17.02.2019 04:00:00 0,7 -0,3 -2,0 1,8 4,0 5,6 7 4 11 6 S 1024,0 6 0 0,0
17.02.2019 03:00:00 1,4 0,4 -2,4 2,0 4,1 5,6 3 2 20 11 SE 1024,4 6 0 0,0
17.02.2019 02:00:00 0,4 -0,5 -1,6 2,2 4,3 5,6 9 5 11 6 SSE 1024,7 5 0 0,0
17.02.2019 01:00:00 0,7 -0,1 -1,9 2,5 4,6 5,6 5 3 8 4 ESE 1025,0 7 0 0,0
17.02.2019 00:00:00 1,4 0,3 -2,1 2,9 4,8 5,6 3 2 8 4 ENE 1025,1 7 0 0,0
16.02.2019 23:00:00 2,0 0,7 -1,1 3,3 5,0 5,6 5 3 6 3 SSE 1025,2 8 0 0,0
16.02.2019 22:00:00 2,9 1,5 -1,2 3,8 5,2 5,6 4 2 6 3 SE 1025,3 9 0 0,0
16.02.2019 21:00:00 4,4 1,7 0,1 4,4 5,4 5,6 3 2 6 4 SSE 1025,2 10 0 0,0
16.02.2019 20:00:00 6,0 2,3 0,7 5,1 5,5 5,6 6 3 8 4 S 1025,1 10 0 0,0
16.02.2019 19:00:00 8,3 2,6 2,0 6,1 5,6 5,6 4 2 8 4 SSW 1025,1 13 0 0,0
16.02.2019 18:00:00 10,3 2,9 3,5 7,2 5,5 5,6 6 3 16 9 SSW 1024,8 14 0 0,0
16.02.2019 17:00:00 12,0 3,6 10,4 8,2 5,3 5,6 13 7 20 11 SW 1024,9 16 50 0,0
16.02.2019 16:00:00 13,2 2,4 12,9 8,7 5,0 5,6 13 7 24 13 SW 1025,1 16 60 0,0
16.02.2019 15:00:00 13,8 2,4 14,4 8,9 4,6 5,6 15 8 23 12 SW 1025,1 18 60 0,0
16.02.2019 14:00:00 13,5 3,6 15,1 8,3 4,1 5,6 14 8 21 12 SSW 1025,2 16 60 0,0
16.02.2019 13:00:00 12,8 3,1 14,8 7,0 3,6 5,6 13 7 21 11 SW 1025,6 20 60 0,0
16.02.2019 12:00:00 11,1 2,2 12,6 5,4 3,3 5,6 12 7 22 12 SW 1025,9 16 60 0,0
16.02.2019 11:00:00 9,7 2,8 11,3 3,5 3,2 5,6 14 7 21 11 SSW 1025,8 20 60 0,0
16.02.2019 10:00:00 7,4 0,7 8,3 1,8 3,2 5,6 12 6 18 10 SW 1026,1 24 60 0,0
16.02.2019 09:00:00 5,3 -0,4 3,9 1,5 3,4 5,6 7 4 14 7 SSW 1025,9 21 38 0,0
16.02.2019 08:00:00 4,2 -0,5 -2,2 1,5 3,5 5,6 8 4 11 6 SSW 1025,6 22 0 0,0
16.02.2019 07:00:00 4,1 -0,4 -1,9 1,6 3,6 5,6 4 2 13 7 SW 1025,3 26 0 0,0
16.02.2019 06:00:00 5,4 -0,3 2,0 1,9 3,8 5,6 10 6 19 10 SSW 1025,5 26 0 0,0
16.02.2019 05:00:00 6,3 -0,5 2,7 2,0 3,9 5,6 13 7 18 10 S 1025,5 29 0 0,0
16.02.2019 04:00:00 6,7 -0,4 2,0 2,2 4,1 5,6 10 5 16 9 S 1025,6 30 0 0,0
16.02.2019 03:00:00 7,6 -0,6 2,9 2,4 4,2 5,6 10 5 17 9 S 1026,0 34 0 0,0
16.02.2019 02:00:00 7,9 -0,6 2,2 2,6 4,4 5,6 10 5 20 11 S 1026,5 37 0 0,0
16.02.2019 01:00:00 8,0 -0,9 3,1 2,7 4,6 5,6 12 6 18 10 S 1026,7 38 0 0,0
16.02.2019 00:00:00 8,8 -1,3 0,2 3,0 4,9 5,6 8 5 13 7 S 1026,8 42 0 0,0
15.02.2019 23:00:00 2,8 1,5 -1,6 3,5 5,1 5,6 7 4 9 5 SSE 1027,2 18 0 0,0
15.02.2019 22:00:00 2,4 1,6 -0,8 4,1 5,4 5,6 8 4 10 5 SE 1027,3 10 0 0,0
15.02.2019 21:00:00 2,7 1,3 -0,4 4,8 5,6 5,6 5 3 6 3 SE 1027,8 15 0 0,0
15.02.2019 20:00:00 4,7 2,7 0,4 5,7 5,8 5,6 4 2 19 10 SE 1028,1 14 0 0,0
15.02.2019 19:00:00 7,4 3,7 1,3 6,9 5,8 5,6 13 7 19 10 E 1028,4 25 0 0,0
15.02.2019 18:00:00 10,4 4,6 4,1 8,4 5,7 5,6 4 2 8 5 E 1028,5 32 16 0,0
15.02.2019 17:00:00 14,9 5,1 11,9 9,9 5,3 5,6 7 4 11 6 ESE 1028,6 35 60 0,0
15.02.2019 16:00:00 15,7 4,0 16,4 10,5 4,8 5,6 8 5 11 6 SE 1029,4 32 59 0,0
15.02.2019 15:00:00 15,7 3,9 17,5 10,4 4,2 5,6 7 4 14 8 SSE 1030,0 39 60 0,0
15.02.2019 14:00:00 14,7 3,0 16,6 9,5 3,5 5,6 9 5 13 7 SSE 1030,9 32 60 0,0
15.02.2019 13:00:00 13,4 1,2 15,3 7,6 2,9 5,6 10 5 15 8 S 1031,7 28 60 0,0
15.02.2019 12:00:00 11,6 1,0 13,6 4,8 2,6 5,6 8 5 14 7 SSE 1032,3 38 60 0,0
15.02.2019 11:00:00 9,2 -0,4 10,3 1,5 2,7 5,6 11 6 16 8 SSE 1032,5 37 60 0,0
15.02.2019 10:00:00 6,4 -0,3 7,6 0,8 2,7 5,6 10 6 13 7 SSE 1032,8 38 60 0,0
15.02.2019 09:00:00 2,4 -3,0 0,2 0,9 2,8 5,6 9 5 10 6 SE 1033,2 26 36 0,0
15.02.2019 08:00:00 -1,3 -2,7 -3,8 0,9 2,9 5,6 10 5 11 6 SE 1033,1 19 0 0,0
15.02.2019 07:00:00 -1,6 -2,7 -3,7 0,9 3,0 5,6 6 3 9 5 E 1033,2 16 0 0,0
15.02.2019 06:00:00 -1,6 -2,5 -3,5 1,0 3,1 5,6 6 3 23 13 ESE 1033,1 10 0 0,0
15.02.2019 05:00:00 -1,5 -2,5 -3,8 1,0 3,3 5,6 7 4 9 5 ENE 1033,3 19 0 0,0
15.02.2019 04:00:00 -0,8 -2,0 -3,8 1,1 3,4 5,6 6 3 8 4 E 1033,5 11 0 0,0
15.02.2019 03:00:00 -0,2 -1,9 -3,8 1,2 3,6 5,6 5 3 8 4 ESE 1034,1 13 0 0,0
15.02.2019 02:00:00 0,6 -1,6 -3,5 1,3 3,8 5,6 5 3 6 4 ESE 1034,3 13 0 0,0
15.02.2019 01:00:00 0,3 -1,3 -3,4 1,4 4,1 5,6 3 2 7 4 ESE 1034,3 13 0 0,0
15.02.2019 00:00:00 0,0 -1,5 -3,1 1,7 4,3 5,6 6 3 8 5 ESE 1034,2 12 0 0,0
14.02.2019 23:00:00 0,6 -0,9 -2,6 2,2 4,6 5,6 4 2 16 9 ESE 1034,3 14 0 0,0
14.02.2019 22:00:00 1,9 -0,6 -1,9 2,8 4,9 5,6 3 2 5 3 ESE 1034,4 18 0 0,0
14.02.2019 21:00:00 2,4 -0,1 -1,8 3,5 5,1 5,6 4 2 8 4 ESE 1034,6 18 0 0,0
14.02.2019 20:00:00 3,0 0,1 -0,9 4,4 5,3 5,6 5 3 7 4 ESE 1034,8 21 0 0,0
14.02.2019 19:00:00 4,7 0,4 0,3 5,6 5,4 5,6 4 2 5 3 E 1034,7 28 0 0,0
14.02.2019 18:00:00 7,5 0,8 1,8 7,1 5,4 5,6 4 2 10 5 ESE 1034,7 33 15 0,0
14.02.2019 17:00:00 11,6 0,0 9,8 8,6 5,1 5,6 6 3 10 5 S 1034,6 40 60 0,0
14.02.2019 16:00:00 11,5 0,7 12,6 9,3 4,7 5,6 8 4 14 7 S 1035,0 32 60 0,0
14.02.2019 15:00:00 11,4 0,7 13,1 9,1 4,2 5,6 9 5 14 8 SSW 1035,5 27 60 0,0
14.02.2019 14:00:00 10,8 0,2 12,8 8,6 3,6 5,6 9 5 13 7 S 1035,9 22 60 0,0
14.02.2019 13:00:00 10,0 -1,0 11,8 6,8 3,2 5,6 10 5 18 10 SW 1036,1 33 60 0,0
14.02.2019 12:00:00 7,7 0,1 8,4 4,9 2,8 5,6 10 5 14 8 SSW 1036,3 27 57 0,0
14.02.2019 11:00:00 5,9 0,2 8,4 2,9 2,7 5,6 10 6 16 9 S 1036,4 21 55 0,0
14.02.2019 10:00:00 3,2 -0,3 3,8 1,0 2,8 5,6 9 5 14 8 S 1036,7 13 32 0,0
14.02.2019 09:00:00 0,9 -0,3 -1,7 0,9 2,9 5,6 8 4 24 13 S 1036,5 10 5 0,0
14.02.2019 08:00:00 1,2 -0,6 -1,9 0,7 3,1 5,6 9 5 15 8 S 1036,3 10 0 0,0
14.02.2019 07:00:00 1,4 -0,3 -0,8 0,9 3,2 5,6 11 6 15 8 S 1035,6 11 0 0,0
14.02.2019 06:00:00 1,6 0,0 -0,7 1,2 3,3 5,6 10 6 14 7 SSW 1035,6 9 0 0,0
14.02.2019 05:00:00 2,4 0,5 0,5 1,4 3,5 5,6 9 5 16 9 SSW 1035,2 10 0 0,0
14.02.2019 04:00:00 2,7 0,9 -0,7 1,5 3,6 5,6 7 4 11 6 S 1035,3 12 0 0,0
14.02.2019 03:00:00 2,6 0,8 0,3 1,8 3,8 5,6 8 4 11 6 S 1035,3 9 0 0,0
14.02.2019 02:00:00 2,3 0,7 -0,7 2,0 3,9 5,6 6 4 8 5 SSW 1035,5 7 0 0,0
14.02.2019 01:00:00 3,1 1,2 -0,7 2,5 4,0 5,6 5 3 10 6 SSW 1035,6 8 0 0,0
14.02.2019 00:00:00 3,9 1,3 1,2 2,8 4,2 5,6 4 2 13 7 SW 1035,3 9 0 0,0
13.02.2019 23:00:00 4,1 1,5 2,6 2,8 4,3 5,6 9 5 15 8 SW 1035,1 10 0 0,0
13.02.2019 22:00:00 3,6 1,5 1,9 3,1 4,4 5,6 8 5 14 8 SSW 1035,2 8 0 0,0
13.02.2019 21:00:00 4,0 1,8 1,4 3,5 4,6 5,6 8 4 11 6 SSW 1035,7 9 0 0,0
13.02.2019 20:00:00 4,5 2,4 2,5 3,9 4,7 5,6 8 5 19 10 SSW 1035,7 9 0 0,0
13.02.2019 19:00:00 4,3 2,8 0,9 4,4 4,7 5,6 4 2 9 5 S 1035,9 9 0 0,0
13.02.2019 18:00:00 6,0 3,1 4,0 5,3 4,7 5,6 8 4 15 8 SW 1035,5 11 0 0,0
13.02.2019 17:00:00 6,7 3,2 6,4 5,6 4,6 5,6 8 4 17 9 SW 1035,4 12 0 0,0
13.02.2019 16:00:00 6,7 3,1 6,7 5,6 4,5 5,6 9 5 22 12 WSW 1035,4 12 0 0,0
13.02.2019 15:00:00 6,3 2,9 6,4 5,4 4,4 5,6 12 6 23 13 SW 1035,4 12 0 0,0
13.02.2019 14:00:00 5,7 2,4 6,0 5,2 4,3 5,6 14 8 21 11 SW 1035,7 12 0 0,0
13.02.2019 13:00:00 5,0 2,0 5,3 4,8 4,2 5,6 14 8 23 12 SW 1036,0 11 0 0,0
13.02.2019 12:00:00 4,5 1,9 4,8 4,5 4,1 5,6 16 8 26 14 SW 1035,9 9 0 0,0
13.02.2019 11:00:00 3,9 1,6 4,1 4,1 4,1 5,6 17 9 26 14 SW 1035,8 8 0 0,0
13.02.2019 10:00:00 3,7 1,6 3,8 4,0 4,1 5,6 20 11 29 16 SW 1035,6 7 0 0,0
13.02.2019 09:00:00 4,2 2,0 4,1 3,8 4,1 5,6 18 10 26 14 SW 1035,5 7 0 0,0
13.02.2019 08:00:00 4,2 1,9 4,0 3,8 4,1 5,6 15 8 29 16 SW 1035,1 7 0 0,0
13.02.2019 07:00:00 4,6 1,8 4,4 3,8 4,1 5,6 14 8 28 15 SW 1034,8 9 0 0,0
13.02.2019 06:00:00 4,9 2,0 4,6 3,8 4,1 5,6 17 9 32 18 SW 1034,2 9 0 0,0
13.02.2019 05:00:00 4,8 2,0 4,5 3,8 4,1 5,6 18 10 34 19 SW 1034,2 9 0 0,0
13.02.2019 04:00:00 4,7 2,1 4,3 3,8 4,1 5,6 16 9 27 15 SW 1034,4 7 0 0,0
13.02.2019 03:00:00 4,9 2,3 4,6 3,7 4,1 5,6 16 9 29 16 SW 1034,8 8 0 0,0
13.02.2019 02:00:00 5,1 2,3 4,8 3,5 4,1 5,6 17 9 30 16 SW 1034,5 8 0 0,0
13.02.2019 01:00:00 4,9 2,3 4,5 3,3 4,2 5,6 14 8 27 14 SW 1034,6 8 0 0,0
13.02.2019 00:00:00 5,0 2,2 3,9 3,3 4,2 5,6 13 7 30 16 SW 1034,4 9 0 0,0
12.02.2019 23:00:00 5,3 2,2 4,7 3,3 4,3 5,6 14 8 24 13 SW 1034,1 9 0 0,0
12.02.2019 22:00:00 4,8 2,1 3,7 3,1 4,5 5,6 15 8 22 12 SW 1033,7 9 0 0,0
12.02.2019 21:00:00 4,5 2,2 3,1 3,4 4,7 5,6 12 6 22 12 SW 1033,9 8 0 0,0
12.02.2019 20:00:00 4,7 2,2 3,2 3,8 4,8 5,6 14 8 23 12 SW 1033,8 9 0 0,0
12.02.2019 19:00:00 5,0 2,1 3,6 4,4 4,9 5,6 12 6 18 10 SW 1033,8 9 0 0,0
12.02.2019 18:00:00 5,1 2,3 3,2 5,4 4,9 5,6 10 6 17 9 SSW 1033,5 11 0 0,0
12.02.2019 17:00:00 6,9 2,4 5,8 6,5 4,8 5,6 13 7 21 12 SW 1033,0 13 2 0,0
12.02.2019 16:00:00 7,5 2,6 7,4 7,5 4,5 5,6 15 8 29 16 WSW 1033,1 16 27 0,0
12.02.2019 15:00:00 7,4 2,7 8,4 7,1 4,2 5,6 16 9 26 14 W 1033,1 18 5 0,0
12.02.2019 14:00:00 6,9 3,5 7,9 6,6 3,9 5,6 12 6 29 16 WSW 1033,1 18 5 0,0
12.02.2019 13:00:00 6,5 3,4 7,4 6,0 3,5 5,6 17 9 26 14 W 1033,3 17 1 0,0
12.02.2019 12:00:00 6,2 3,4 8,0 5,0 3,3 5,6 13 7 22 12 WSW 1033,6 17 29 0,0
12.02.2019 11:00:00 4,6 2,2 5,6 3,2 3,1 5,6 12 7 23 13 WSW 1033,4 21 3 0,0
12.02.2019 10:00:00 3,4 1,5 3,4 2,1 3,1 5,6 10 6 19 10 WSW 1033,1 18 0 0,0
12.02.2019 09:00:00 2,5 1,0 2,1 1,6 3,2 5,6 12 7 18 10 W 1032,8 17 0 0,0
12.02.2019 08:00:00 1,9 0,6 1,1 1,2 3,3 5,6 10 5 17 9 W 1032,0 16 0 0,0
12.02.2019 07:00:00 1,4 0,1 -0,1 1,2 3,5 5,6 9 5 16 8 WSW 1031,5 15 0 0,0
12.02.2019 06:00:00 1,3 0,0 -0,4 1,4 3,6 5,6 11 6 17 9 W 1031,4 16 0 0,0
12.02.2019 05:00:00 1,6 0,2 0,4 1,8 3,7 5,6 13 7 19 11 W 1031,3 16 0 0,0
12.02.2019 04:00:00 2,0 0,6 0,5 2,0 3,8 5,6 10 5 24 13 W 1031,1 21 0 0,0
12.02.2019 03:00:00 3,0 0,9 2,5 2,1 3,9 5,6 16 9 26 14 W 1030,7 27 0 0,0
12.02.2019 02:00:00 2,0 0,5 1,0 1,8 4,1 5,5 10 5 14 8 W 1030,7 23 0 0,0
12.02.2019 01:00:00 1,9 0,5 -0,1 2,2 4,3 5,5 10 5 22 12 W 1030,4 21 0 0,0
12.02.2019 00:00:00 3,1 1,0 1,8 2,8 4,4 5,5 16 8 24 13 W 1030,0 24 0 0,0
11.02.2019 23:00:00 3,0 0,4 1,6 2,9 4,5 5,5 15 8 28 15 W 1029,3 32 0 0,0
11.02.2019 22:00:00 3,6 0,2 2,8 2,8 4,7 5,5 14 7 22 12 W 1028,5 26 0 0,0
11.02.2019 21:00:00 3,0 -1,2 1,5 2,6 5,0 5,5 9 5 16 8 W 1027,8 29 0 0,0
11.02.2019 20:00:00 3,6 -1,6 1,4 3,2 5,2 5,5 13 7 22 12 WNW 1027,3 32 0 0,0
11.02.2019 19:00:00 3,6 -0,5 1,2 4,0 5,4 5,5 10 5 26 14 WNW 1026,1 28 0 0,0
11.02.2019 18:00:00 4,7 0,2 2,7 5,2 5,5 5,5 19 10 50 27 NW 1025,2 29 0 0,1
11.02.2019 17:00:00 5,2 1,6 4,2 6,4 5,4 5,5 26 14 43 23 N 1023,7 7 49 0,0
11.02.2019 16:00:00 6,2 1,3 6,3 6,7 5,3 5,5 24 13 42 23 NW 1021,7 37 23 0,0
11.02.2019 15:00:00 5,7 1,5 4,4 7,3 5,1 5,5 15 8 46 25 NNW 1020,5 32 44 0,4
11.02.2019 14:00:00 5,0 1,4 4,4 6,7 4,9 5,5 19 10 54 29 NNW 1019,6 32 16 0,2
11.02.2019 13:00:00 5,9 2,4 6,3 6,6 4,7 5,5 18 10 38 21 NNW 1018,2 32 21 0,0

tt = Température de l'air
td = dewpoint
tt 5cm = Température de l'air 5cm
tt -5cm = Température de l'air -5cm
tt -20cm = Température de l'air -20cm
tt -100cm = Température de l'air -100cm
ff = Vitesse du vent
fx = gusts
dd = Direction du vent
ppp = reduced air pressure
vv = visibility
sd = Ensoleillement
rr = Quantités de précipitations

stations d'obs. à proximité